Other Public Products
Issued by NWS Grand Forks, ND

Home | Current Version | Previous Version | Text Only | Print | Product List | Glossary On
Versions: 1 2 3 4 5 6 7 8 9 10 11 12 13 14 15 16 17 18 19 20 21 22 23 24 25 26 27 28 29 30 31 32 33 34 35 36 37 38 39 40 41 42 43 44 45 46 47 48 49 50
000
FPUS83 KFGF 011231
OPUFGF
PRAIRIE TO PINES WEATHER ROUNDUP
NATIONAL WEATHER SERVICE EASTERN NORTH DAKOTA/GRAND FORKS ND
600 AM CST SUN MAR 01 2015

 **SATELLITE DATA USED TO AUGMENT SKY COVER AT AUTOMATED STATIONS**
 *****  WEATHER ACROSS EASTERN NORTH DAKOTA  *****

CITY           SKY/WX    TMP DP  RH WIND       PRES   REMARKS
GRAND FORKS    FAIR       2  -4  76 SW8       30.15S WCI -12
6HR MIN TEMP:  -3; 6HR MAX TEMP:   4;

GRAND FORKS AF FAIR       3  -4  73 W9        30.14S WCI -12
GRAND CITY NWS   N/A      1 N/A N/A W7          N/A  WCI -11
BUXTON         NOT AVBL
DEVILS LAKE    FAIR       1  -6  71 W13       30.10S WCI -16
6HR MIN TEMP:   0; 6HR MAX TEMP:   3;

FARGO          FAIR       0  -6  76 SW9       30.21S WCI -15
6HR MIN TEMP:  -2; 6HR MAX TEMP:   6;

WAHPETON ARPT  FAIR       0  -4  85 SW5       30.23S WCI -10
$$

 *****  WEATHER ACROSS CENTRAL AND WESTERN NORTH DAKOTA  *****

CITY           SKY/WX    TMP DP  RH WIND       PRES   REMARKS
JAMESTOWN      FAIR       7   0  73 W15       30.14S WCI -10
6HR MIN TEMP:  -3; 6HR MAX TEMP:   7;

BISMARCK       CLOUDY     7   1  76 CALM      30.18S
6HR MIN TEMP:   2; 6HR MAX TEMP:   7;

MINOT          FAIR       9   3  77 W13       30.11R WCI  -7
6HR MIN TEMP:   4; 6HR MAX TEMP:  11; 6HR PCP: TRACE;

MINOT AFB      FAIR       8   4  86 W15       30.10R WCI -10
6HR MIN TEMP:   0; 6HR MAX TEMP:   9; 6HR PCP: TRACE;

GARRISON         N/A      6   1  80 W10       30.12R WCI  -9
6HR MIN TEMP:  -2; 6HR MAX TEMP:   7;

WILLISTON      CLOUDY    15  10  80 NW6       30.17R WCI   6
6HR MIN TEMP:   7; 6HR MAX TEMP:  16; 6HR PCP: TRACE;

DICKINSON      PTCLDY    12   7  80 W14       30.11R WCI  -3
6HR MIN TEMP:  10; 6HR MAX TEMP:  13;

HETTINGER      CLOUDY    14  10  84 W10       30.16R WCI   1
6HR MIN TEMP:   1; 6HR MAX TEMP:  15;

$$

 *****  OTHER OBSERVATIONS NORTHEAST NORTH DAKOTA  *****

CITY           SKY/WX    TMP DP  RH WIND       PRES   REMARKS
WALHALLA         N/A      9   1  72 W8        30.10R WCI  -4
LANGDON        NOT AVBL
CAVALIER       FAIR       5   0  78 W7        30.11R WCI  -7
GRAFTON        NOT AVBL
CANDO          PTSUNNY    0  -4  85 W10       30.10R WCI -17
FORT TOTTEN    NOT AVBL
ROLLA          FAIR       3   0  85 W9        30.06R WCI -11
RUGBY          FLURRIES   0  -4  85 SW10      30.10R WCI -17
 ***** THE ABOVE OBSERVATIONS ARE NON NWS ARE NOT QUALITY
        CONTROLLED AND MAY MIS-REPORT RAIN FOR SNOW...
$$

 *****  OTHER OBSERVATIONS SOUTHEAST NORTH DAKOTA *****

CITY           SKY/WX    TMP DP  RH WIND       PRES   REMARKS
COOPERSTOWN    NOT AVBL
VALLEY CITY    CLOUDY     5   0  78 W15       30.15S WCI -13
OAKES            N/A      0  -2  92 SW7       30.20R WCI -13
GWINNER        SUNNY      3  -2  78 SW12      30.21S WCI -13
SHEYENNE NWR     N/A     -4 -10  77 W3        29.95
BUFFALO        NOT AVBL
WYNDMERE         N/A      0  -6  78 SW3         N/A
 ***** THE ABOVE OBSERVATIONS ARE NON NWS ARE NOT QUALITY
       CONTROLLED AND MAY MIS-REPORT RAIN FOR SNOW...
$$

  *****  WEATHER ACROSS NORTHERN MINNESOTA  *****

CITY           SKY/WX    TMP DP  RH WIND       PRES   REMARKS
FLAG ISLAND    FAIR      -4  -8  84 S7        30.05S WCI -18
WARROAD        FAIR      -2  -8  78 SW8       30.08R WCI -17
ROSEAU         FAIR      -2  -8  78 SW10      30.08S WCI -19
HALLOCK        FAIR      -8 -11  84 S9        30.10S WCI -25
THF RVR FALLS  FAIR      -2 -22  38 SW8       30.12R WCI -17
6HR MIN TEMP:  -8; 6HR MAX TEMP:   3;

HALSTAD          N/A     -4  -8  84 S6          N/A  WCI -16
FOSSTON        FAIR      -8 -11  84 S10       30.13F WCI -26
BAUDETTE       FAIR      -3  -7  82 SW5       30.06S WCI -13
6HR MIN TEMP:  -3; 6HR MAX TEMP:  17; 6HR PCP: TRACE;

WASKISH        FAIR       1  -2  85 CALM      30.09S
CROOKSTON      FAIR      -2  -6  84 S7        30.16F WCI -16
$$
  *****  WEATHER ACROSS CENTRAL AND WEST MINNESOTA  *****

CITY           SKY/WX    TMP DP  RH WIND       PRES   REMARKS
BEMIDJI        FAIR       0  -3  85 SW8       30.11F WCI -14
PARK RAPIDS    FAIR      -2  -8  76 SW6       30.13S WCI -14
6HR MIN TEMP:  -5; 6HR MAX TEMP:  17; 6HR PCP: TRACE;

WADENA         FAIR      -2  -6  84 W6        30.16F WCI -14
DETROIT LAKES  FAIR       1   0  92 SW5       30.17S WCI  -8
MOORHEAD       FAIR       0  -2  92 S3        30.21F
FERGUS FALLS   FAIR       0  -6  78 SW3       30.25F
ELBOW LAKE     FAIR      -1  -4  87 SW5       30.21S WCI -12
6HR MIN TEMP:   0; 6HR MAX TEMP:  14;

MORRIS MN      FAIR       1  -2  85 W6        30.23R WCI -10
STAPLES        FAIR       1  -2  85 W8        30.17S WCI -12
WHEATON        NOT AVBL
$$
  *****  WEATHER ELSEWHERE ACROSS MINNESOTA  *****

CITY           SKY/WX    TMP DP  RH WIND       PRES   REMARKS
DULUTH         LGT SNOW  11   6  81 SW9       30.09F WCI  -2
6HR MIN TEMP:  11; 6HR MAX TEMP:  12; 6HR PCP: TRACE;

INTRNTL FALLS  FAIR       4   0  83 SW6       30.06S WCI  -7
6HR MIN TEMP:   4; 6HR MAX TEMP:  17; 6HR PCP:  0.01;

ELY            CLOUDY    10   7  85 SW8       30.06S WCI  -1
CLOQUET        CLOUDY    10   7  85 S10       30.11F WCI  -3
BRAINERD       FAIR       8   2  76 NW9       30.16R WCI  -5
6HR MIN TEMP:   8; 6HR MAX TEMP:  14; 6HR PCP: TRACE;

HIBBING        LGT SNOW  13   8  81 SW3       30.07F
6HR MIN TEMP:  13; 6HR MAX TEMP:  14; 6HR PCP: TRACE;

ALEXANDRIA     FAIR       4  -1  80 W12       30.19R WCI -12
6HR MIN TEMP:   3; 6HR MAX TEMP:  17;

SAINT CLOUD    CLOUDY    15  11  83 W10       30.18F WCI   2
6HR MIN TEMP:  12; 6HR MAX TEMP:  16;

MINNEAPOLIS    CLOUDY    16  10  77 SW7       30.24S WCI   6
6HR MIN TEMP:  14; 6HR MAX TEMP:  16; 6HR PCP: TRACE;

$$

  *****  WEATHER ACROSS SOUTH DAKOTA  *****

CITY           SKY/WX    TMP DP  RH WIND       PRES   REMARKS
SIOUX FALLS    FAIR       9   7  92 CALM      30.28R
6HR MIN TEMP:   9; 6HR MAX TEMP:  17;

BROOKINGS      NOT AVBL
WATERTOWN      FAIR       1  -3  83 SW12      30.22R WCI -16
6HR MIN TEMP:  -1; 6HR MAX TEMP:  14;

HURON          MOCLDY     5   1  83 SW5       30.29S WCI  -4
6HR MIN TEMP:   1; 6HR MAX TEMP:   8;

SISSETON         N/A      7   1  76 W8        30.23  WCI  -6
ABERDEEN       PTCLDY     0  -5  79 SW8       30.25R WCI -14
6HR MIN TEMP:  -1; 6HR MAX TEMP:   6;

MITCHELL       CLOUDY    13   7  77 SW6       30.31R WCI   4
PIERRE         PTCLDY    12   4  70 W8        30.26R WCI   0
6HR MIN TEMP:   8; 6HR MAX TEMP:  14;

MOBRIDGE       CLEAR      3  -2  79 CALM      30.19R
RAPID CITY     CLEAR      9   6  88 CALM      30.22R
6HR MIN TEMP:   4; 6HR MAX TEMP:  15;

$$

  *****  SOME WEATHER IN NEARBY STATES *****

CITY           SKY/WX    TMP DP  RH WIND       PRES   REMARKS
GLASGOW MT     LGT SNOW  14  10  84 W7        30.21R FOG     WCI   4
6HR MIN TEMP:  12; 6HR MAX TEMP:  19; 6HR PCP:  0.02;

GREAT FALLS MT MOCLDY    16   8  71 S10       30.24S WCI   4
6HR MIN TEMP:   9; 6HR MAX TEMP:  17;

CHEYENNE WY    CLEAR     11   7  84 N7        30.04R WCI   0
6HR MIN TEMP:  11; 6HR MAX TEMP:  17; 6HR PCP:  0.01;

SCOTTSBLUFF NE PTCLDY    16  10  77 NE5       30.19R WCI   9
6HR MIN TEMP:  17; 6HR MAX TEMP:  24;

OMAHA NE       FAIR      20  13  74 SW3       30.35S
6HR MIN TEMP:  19; 6HR MAX TEMP:  23; 6HR PCP: TRACE;

DES MOINES IA  CLOUDY    22  16  78 SW5       30.35R WCI  16
6HR MIN TEMP:  20; 6HR MAX TEMP:  22; 6HR PCP: TRACE;

DAVENPORT IA   FOG       13   9  84 CALM      30.37S VSB 1
6HR MIN TEMP:   5; 6HR MAX TEMP:  12;

CHICAGO IL     CLOUDY    12   9  87 W3        30.38S FOG
6HR MIN TEMP:  10; 6HR MAX TEMP:  18; 6HR PCP: TRACE;

EAU CLAIRE WI  CLOUDY    13   8  81 S10       30.25F WCI   0
6HR MIN TEMP:  12; 6HR MAX TEMP:  13; 6HR PCP: TRACE;

LA CROSSE WI   FAIR      10   6  84 S6        30.32F WCI   0
6HR MIN TEMP:   9; 6HR MAX TEMP:  14;

$$

  *****  SOME NATIONAL WEATHER *****

CITY           SKY/WX    TMP DP  RH WIND       PRES   REMARKS



USA.gov is the U.S. government's official web portal to all federal, state and local government web resources and services.